Location: Ames
(42.0350°N, 93.6200°W)
Time: 15:47:01
(UTC-05:00)

ISS - All Passes

Search period start: 26 June 2016 00:00
Search period end: 06 July 2016 00:00
Orbit: 402 x 403 km, 51.6° (Epoch: 26 June)

Date Brightness Start Highest point End Pass type
(mag) Time Alt. Az. Time Alt. Az. Time Alt. Az.
26 Jun - 09:18:48 10° S 09:20:54 16° SE 09:23:01 10° E daylight
26 Jun - 10:53:48 10° WSW 10:57:02 61° NNW 11:00:17 10° NE daylight
26 Jun - 12:31:36 10° WNW 12:33:59 18° NNW 12:36:22 10° NE daylight
26 Jun - 14:09:11 10° NNW 14:11:21 16° N 14:13:31 10° NE daylight
26 Jun - 15:45:20 10° NW 15:48:27 40° NNE 15:51:34 10° E daylight
26 Jun - 17:21:59 10° WNW 17:24:47 26° SW 17:27:34 10° SSE daylight
27 Jun - 10:01:03 10° SW 10:04:17 73° SE 10:07:33 10° ENE daylight
27 Jun - 11:38:19 10° WNW 11:41:01 23° NNW 11:43:43 10° NE daylight
27 Jun - 13:16:18 10° NW 13:18:19 15° N 13:20:21 10° NE daylight
27 Jun - 14:52:42 10° NW 14:55:34 27° NNE 14:58:25 10° E daylight
27 Jun - 16:28:58 10° WNW 16:32:09 50° SW 16:35:20 10° SE daylight
28 Jun - 09:08:35 10° SSW 09:11:36 36° SE 09:14:39 10° ENE daylight
28 Jun - 10:45:06 10° W 10:48:05 32° NNW 10:51:05 10° NE daylight
28 Jun - 12:23:11 10° NW 12:25:16 16° N 12:27:20 10° NE daylight
28 Jun - 14:00:04 10° NW 14:02:36 20° NNE 14:05:09 10° ENE daylight
28 Jun - 15:36:09 10° NW 15:39:27 83° NE 15:42:42 10° ESE daylight
28 Jun - 17:14:16 10° WSW 17:15:25 11° SW 17:16:35 10° SSW daylight
29 Jun - 08:16:35 10° S 08:19:00 19° SE 08:21:26 10° E daylight
29 Jun - 09:52:02 10° WSW 09:55:12 51° NNW 09:58:25 10° NE daylight
29 Jun - 11:29:56 10° NW 11:32:13 17° N 11:34:30 10° NNE daylight
29 Jun - 13:07:20 10° NNW 13:09:35 17° N 13:11:50 10° NE daylight
29 Jun - 14:43:27 10° NW 14:46:37 46° NNE 14:49:47 10° ESE daylight
29 Jun - 16:20:18 10° W 16:22:52 22° SW 16:25:27 10° S daylight
30 Jun - 07:26:09 10° SE 07:26:28 10° SE 07:26:47 10° ESE daylight
30 Jun - 08:59:08 10° SW 09:02:24 88° SSE 09:05:41 10° NE daylight
30 Jun - 10:36:35 10° WNW 10:39:11 21° NNW 10:41:47 10° NE daylight
30 Jun - 12:14:28 10° NW 12:16:31 15° N 12:18:34 10° NE daylight
30 Jun - 13:50:46 10° NW 13:53:44 30° NNE 13:56:40 10° E daylight
30 Jun - 15:27:08 10° WNW 15:30:15 41° SW 15:33:20 10° SSE daylight
01 Jul - 08:06:33 10° SSW 08:09:40 44° SE 08:12:48 10° ENE daylight
01 Jul - 09:43:18 10° W 09:46:12 29° NNW 09:49:07 10° NE daylight
01 Jul - 11:21:23 10° NW 11:23:26 15° N 11:25:28 10° NE daylight
01 Jul - 12:58:07 10° NW 13:00:45 22° NNE 13:03:23 10° ENE daylight
01 Jul - 14:34:14 10° WNW 14:37:30 82° SW 14:40:46 10° SE daylight
02 Jul - 07:14:21 10° S 07:17:00 23° SE 07:19:39 10° E daylight
02 Jul - 08:50:08 10° WSW 08:53:16 44° NNW 08:56:26 10° NE daylight
02 Jul - 10:28:07 10° NW 10:30:20 17° N 10:32:33 10° NNE daylight
02 Jul - 12:05:22 10° NW 12:07:42 18° NNE 12:10:01 10° ENE daylight
02 Jul - 13:41:27 10° NW 13:44:41 54° NNE 13:47:53 10° ESE daylight
02 Jul - 15:18:32 10° W 15:20:51 18° SW 15:23:10 10° S daylight
03 Jul - 06:22:57 10° SSE 06:24:23 12° SE 06:25:50 10° ESE daylight
03 Jul - 07:57:09 10° WSW 08:00:24 78° NNW 08:03:40 10° NE daylight
03 Jul - 09:34:45 10° WNW 09:37:15 20° NNW 09:39:46 10° NE daylight
03 Jul - 11:12:31 10° NW 11:14:36 16° N 11:16:42 10° NE daylight
03 Jul - 12:48:44 10° NW 12:51:46 33° NNE 12:54:47 10° E daylight
03 Jul - 14:25:12 10° WNW 14:28:12 34° SW 14:31:11 10° SSE daylight
04 Jul - 07:04:25 10° SW 07:07:36 55° SE 07:10:49 10° ENE daylight
04 Jul - 08:41:25 10° W 08:44:13 26° NNW 08:47:02 10° NE daylight
04 Jul - 10:19:27 10° NW 10:21:28 15° N 10:23:30 10° NE daylight
04 Jul - 11:56:02 10° NW 11:58:45 24° NNE 12:01:29 10° ENE daylight
04 Jul - 13:32:12 10° WNW 13:35:27 67° SW 13:38:41 10° SE daylight
05 Jul - 06:12:02 10° SSW 06:14:52 28° SE 06:17:43 10° ENE daylight
05 Jul - 07:48:08 10° W 07:51:14 38° NNW 07:54:19 10° NE daylight
05 Jul - 09:26:11 10° NW 09:28:20 16° N 09:30:29 10° NE daylight
05 Jul - 11:03:17 10° NW 11:05:42 19° NNE 11:08:06 10° ENE daylight
05 Jul - 12:39:21 10° NW 12:42:37 65° NNE 12:45:51 10° ESE daylight
05 Jul - 14:16:44 10° W 14:18:42 15° SW 14:20:40 10° S daylight
